| time (UTC) | temp F | wind direction | speed knots | gust knots | rain 1hr in | rain 24hr in | rain mn in | humidity % | barometer mb |
| 20260503002351 | 37 | 0.0 | 0.0 | 0.00 | 0.00 | 0.00 | 10 | 980.2 | |
| 20260503001350 | 37 | 0.0 | 0.0 | 0.00 | 0.00 | 0.00 | 10 | 980.1 | |
| 20260503000350 | 37 | 0.0 | 0.0 | 0.00 | 0.00 | 0.00 | 10 | 980.3 | |
| 20260502235406 | 37 | 0.0 | 0.0 | 0.00 | 0.00 | 0.00 | 10 | 980.3 | |
| 20260502234405 | 37 | 0.0 | 0.0 | 0.00 | 0.00 | 0.00 | 10 | 980.3 | |
| 20260502233350 | 37 | 0.0 | 0.0 | 0.00 | 0.00 | 0.00 | 10 | 980.4 | |
| 20260502232351 | 37 | 0.0 | 0.0 | 0.00 | 0.00 | 0.00 | 10 | 980.4 | |
| 20260502231350 | 38 | 0.0 | 0.0 | 0.00 | 0.00 | 0.00 | 10 | 980.6 | |
| 20260502230406 | 38 | 0.0 | 0.0 | 0.00 | 0.00 | 0.00 | 10 | 980.5 | |
| 20260502225353 | 38 | 0.0 | 0.0 | 0.00 | 0.00 | 0.00 | 10 | 980.5 | |
| 20260502224407 | 38 | 0.0 | 0.0 | 0.00 | 0.00 | 0.00 | 10 | 980.4 | |
| 20260502223354 | 39 | 0.0 | 0.0 | 0.00 | 0.00 | 0.00 | 10 | 980.6 | |
| 20260502222350 | 39 | 0.0 | 0.0 | 0.00 | 0.00 | 0.00 | 10 | 980.7 | |
| 20260502221350 | 39 | 0.0 | 0.0 | 0.00 | 0.00 | 0.00 | 10 | 980.8 | |
| 20260502220350 | 39 | 0.0 | 0.0 | 0.00 | 0.00 | 0.00 | 10 | 980.9 | |
| 20260502215350 | 40 | 0.0 | 0.0 | 0.00 | 0.00 | 0.00 | 10 | 980.8 | |
| 20260502214350 | 40 | 0.0 | 0.0 | 0.00 | 0.00 | 0.00 | 10 | 981.0 | |
| 20260502213350 | 41 | 0.0 | 0.0 | 0.00 | 0.00 | 0.00 | 10 | 981.0 | |
| 20260502212350 | 41 | 0.0 | 0.0 | 0.00 | 0.00 | 0.00 | 10 | 980.9 | |
| 20260502211350 | 41 | 0.0 | 0.0 | 0.00 | 0.00 | 0.00 | 10 | 980.9 | |
| 20260502210350 | 41 | 0.0 | 0.0 | 0.00 | 0.00 | 0.00 | 10 | 980.9 | |
| 20260502205352 | 42 | 0.0 | 0.0 | 0.00 | 0.00 | 0.00 | 10 | 981.1 | |
| 20260502204350 | 42 | 0.0 | 0.0 | 0.00 | 0.00 | 0.00 | 10 | 981.0 | |
| 20260502203350 | 42 | 0.0 | 0.0 | 0.00 | 0.00 | 0.00 | 10 | 981.2 | |
| 20260502202350 | 42 | 0.0 | 0.0 | 0.00 | 0.00 | 0.00 | 10 | 981.2 | |
| 20260502201350 | 43 | 0.0 | 0.0 | 0.00 | 0.00 | 0.00 | 10 | 981.1 | |
| 20260502200350 | 43 | 0.0 | 0.0 | 0.00 | 0.00 | 0.00 | 10 | 981.1 | |
| 20260502195350 | 43 | 0.0 | 0.0 | 0.00 | 0.00 | 0.00 | 10 | 981.3 | |
| 20260502194354 | 43 | 0.0 | 0.0 | 0.00 | 0.00 | 0.00 | 10 | 981.2 | |
| 20260502193405 | 43 | 0.0 | 0.0 | 0.00 | 0.00 | 0.00 | 10 | 981.2 | |
| 20260502192350 | 43 | 0.0 | 0.0 | 0.00 | 0.00 | 0.00 | 10 | 981.2 | |
| 20260502191350 | 43 | 0.0 | 0.0 | 0.00 | 0.00 | 0.00 | 10 | 981.2 | |
| 20260502190421 | 44 | 0.0 | 0.0 | 0.00 | 0.00 | 0.00 | 10 | 981.2 | |
| 20260502185350 | 44 | 0.0 | 0.0 | 0.00 | 0.00 | 0.00 | 10 | 981.1 | |
| 20260502184350 | 44 | 0.0 | 0.0 | 0.00 | 0.00 | 0.00 | 10 | 981.0 | |
| 20260502183350 | 44 | 0.0 | 0.0 | 0.00 | 0.00 | 0.00 | 10 | 980.9 | |
| 20260502182350 | 45 | 0.0 | 0.0 | 0.00 | 0.00 | 0.00 | 10 | 981.0 | |
| 20260502181350 | 44 | 0.0 | 0.0 | 0.00 | 0.00 | 0.00 | 10 | 980.9 | |
| 20260502180350 | 44 | 0.0 | 0.0 | 0.00 | 0.00 | 0.00 | 10 | 980.8 | |
| 20260502170350 | 48 | 0.0 | 0.0 | 0.00 | 0.00 | 0.00 | 10 | 980.6 | |
| 20260502163350 | 50 | 0.0 | 0.0 | 0.00 | 0.00 | 0.00 | 93 | 980.5 | |
| 20260502162420 | 50 | 0.0 | 0.0 | 0.00 | 0.00 | 0.00 | 94 | 980.5 | |
| 20260502161407 | 51 | 0.0 | 0.0 | 0.00 | 0.00 | 0.00 | 89 | 980.5 | |
| 20260502160352 | 51 | 0.0 | 0.0 | 0.00 | 0.00 | 0.00 | 89 | 980.5 | |
| 20260502151351 | 52 | 0.0 | 0.0 | 0.00 | 0.00 | 0.00 | 88 | 980.6 | |
| 20260502150350 | 52 | 0.0 | 0.0 | 0.00 | 0.00 | 0.00 | 93 | 980.8 | |
| 20260502130350 | 52 | 0.0 | 0.0 | 0.00 | 0.00 | 0.00 | 10 | 981.2 | |
| 20260502123350 | 50 | 0.0 | 0.0 | 0.00 | 0.00 | 0.00 | 10 | 981.4 | |
| 20260502122351 | 50 | 0.0 | 0.0 | 0.00 | 0.00 | 0.00 | 10 | 981.5 | |
| 20260502121350 | 52 | 0.0 | 0.0 | 0.00 | 0.00 | 0.00 | 10 | 981.4 | |
| 20260502120350 | 52 | 0.0 | 0.0 | 0.00 | 0.00 | 0.00 | 10 | 981.5 | |
| 20260502115350 | 52 | 0.0 | 0.0 | 0.00 | 0.00 | 0.00 | 10 | 981.4 | |
| 20260502114350 | 51 | 0.0 | 0.0 | 0.00 | 0.00 | 0.00 | 10 | 981.6 | |
| 20260502113350 | 52 | 0.0 | 0.0 | 0.00 | 0.00 | 0.00 | 10 | 981.6 | |
| 20260502112350 | 50 | 0.0 | 0.0 | 0.00 | 0.00 | 0.00 | 10 | 981.5 | |
| 20260502111351 | 48 | 0.0 | 0.0 | 0.00 | 0.00 | 0.00 | 10 | 981.4 | |
| 20260502110350 | 49 | 0.0 | 0.0 | 0.00 | 0.00 | 0.00 | 10 | 981.3 | |
| 20260502105350 | 49 | 0.0 | 0.0 | 0.00 | 0.00 | 0.00 | 10 | 981.3 | |
| 20260502104353 | 48 | 0.0 | 0.0 | 0.00 | 0.00 | 0.00 | 10 | 981.3 | |
| 20260502103350 | 48 | 0.0 | 0.0 | 0.00 | 0.00 | 0.00 | 10 | 981.3 | |
| 20260502102350 | 49 | 0.0 | 0.0 | 0.00 | 0.00 | 0.00 | 10 | 981.4 | |
| 20260502101405 | 48 | 0.0 | 0.0 | 0.00 | 0.00 | 0.00 | 10 | 981.4 | |
| 20260502100407 | 47 | 0.0 | 0.0 | 0.00 | 0.00 | 0.00 | 10 | 981.6 | |
| 20260502091350 | 48 | 0.0 | 0.0 | 0.00 | 0.00 | 0.00 | 10 | 981.8 | |
| 20260502090350 | 48 | 0.0 | 0.0 | 0.00 | 0.00 | 0.00 | 10 | 981.8 | |
| 20260502071352 | 48 | 0.0 | 0.0 | 0.00 | 0.00 | 0.00 | 10 | 981.6 | |
| 20260502070407 | 46 | 0.0 | 0.0 | 0.00 | 0.00 | 0.00 | 10 | 981.6 | |
| 20260502065351 | 46 | 0.0 | 0.0 | 0.00 | 0.00 | 0.00 | 10 | 981.5 | |
| 20260502064350 | 46 | 0.0 | 0.0 | 0.00 | 0.00 | 0.00 | 10 | 981.5 | |
| 20260502063350 | 46 | 0.0 | 0.0 | 0.00 | 0.00 | 0.00 | 10 | 981.2 | |
| 20260502062351 | 46 | 0.0 | 0.0 | 0.00 | 0.00 | 0.00 | 10 | 981.2 | |
| 20260502061350 | 47 | 0.0 | 0.0 | 0.00 | 0.00 | 0.00 | 10 | 981.2 | |
| 20260502060350 | 46 | 0.0 | 0.0 | 0.00 | 0.00 | 0.00 | 10 | 980.6 | |
| 20260502055405 | 45 | 0.0 | 0.0 | 0.00 | 0.00 | 0.00 | 10 | 980.2 | |
| 20260502054352 | 44 | 0.0 | 0.0 | 0.00 | 0.00 | 0.00 | 10 | 980.4 | |
| 20260502053350 | 44 | 0.0 | 0.0 | 0.00 | 0.00 | 0.00 | 10 | 980.1 | |
| 20260502052351 | 43 | 0.0 | 0.0 | 0.00 | 0.00 | 0.00 | 10 | 979.0 | |
| 20260502051349 | 42 | 0.0 | 0.0 | 0.00 | 0.00 | 0.00 | 10 | 978.3 | |
| 20260502050350 | 42 | 0.0 | 0.0 | 0.00 | 0.00 | 0.00 | 10 | 978.2 | |
| 20260502045408 | 42 | 0.0 | 0.0 | 0.00 | 0.00 | 0.00 | 10 | 978.4 | |
| 20260502044350 | 42 | 0.0 | 0.0 | 0.00 | 0.00 | 0.00 | 10 | 978.6 | |
| 20260502043350 | 42 | 0.0 | 0.0 | 0.00 | 0.00 | 0.00 | 10 | 978.5 | |
| 20260502042351 | 42 | 0.0 | 0.0 | 0.00 | 0.00 | 0.00 | 10 | 978.8 | |
| 20260502041350 | 42 | 0.0 | 0.0 | 0.00 | 0.00 | 0.00 | 10 | 978.7 | |
| 20260502040350 | 42 | 0.0 | 0.0 | 0.00 | 0.00 | 0.00 | 10 | 978.6 | |
| 20260502035350 | 42 | 0.0 | 0.0 | 0.00 | 0.00 | 0.00 | 10 | 978.6 | |
| 20260502034350 | 42 | 0.0 | 0.0 | 0.00 | 0.00 | 0.00 | 10 | 978.5 | |
| 20260502033350 | 41 | 0.0 | 0.0 | 0.00 | 0.00 | 0.00 | 10 | 978.6 | |
| 20260502032350 | 41 | 0.0 | 0.0 | 0.00 | 0.00 | 0.00 | 10 | 978.5 | |
| 20260502031351 | 41 | 0.0 | 0.0 | 0.00 | 0.00 | 0.00 | 10 | 978.4 | |
| 20260502030351 | 41 | 0.0 | 0.0 | 0.00 | 0.00 | 0.00 | 10 | 978.5 | |
| 20260502025349 | 42 | 0.0 | 0.0 | 0.00 | 0.00 | 0.00 | 10 | 978.7 | |
| 20260502024350 | 41 | 0.0 | 0.0 | 0.00 | 0.00 | 0.00 | 10 | 978.6 | |
| 20260502023351 | 41 | 0.0 | 0.0 | 0.00 | 0.00 | 0.00 | 10 | 978.6 | |
| 20260502022350 | 41 | 0.0 | 0.0 | 0.00 | 0.00 | 0.00 | 10 | 978.6 | |
| 20260502021349 | 41 | 0.0 | 0.0 | 0.00 | 0.00 | 0.00 | 10 | 978.3 | |
| 20260502020405 | 41 | 0.0 | 0.0 | 0.00 | 0.00 | 0.00 | 10 | 978.1 | |
| 20260502015350 | 41 | 0.0 | 0.0 | 0.00 | 0.00 | 0.00 | 10 | 978.1 | |
| 20260502014356 | 41 | 0.0 | 0.0 | 0.00 | 0.00 | 0.00 | 10 | 978.1 | |
| 20260502013349 | 41 | 0.0 | 0.0 | 0.00 | 0.00 | 0.00 | 10 | 978.4 | |
| 20260502012407 | 41 | 0.0 | 0.0 | 0.00 | 0.00 | 0.00 | 10 | 978.1 | |
| 20260502011349 | 41 | 0.0 | 0.0 | 0.00 | 0.00 | 0.00 | 10 | 978.0 | |
| 20260502010350 | 40 | 0.0 | 0.0 | 0.00 | 0.00 | 0.00 | 10 | 978.0 | |
| 20260502005352 | 41 | 0.0 | 0.0 | 0.00 | 0.00 | 0.00 | 10 | 977.9 | |
| 20260502004350 | 40 | 0.0 | 0.0 | 0.00 | 0.00 | 0.00 | 10 | 977.8 | |
| 20260502003349 | 40 | 0.0 | 0.0 | 0.00 | 0.00 | 0.00 | 10 | 978.0 |